Wind_Speed
20 21 21 20 20 20 20 20 21 20 19 19 21 22 22 21 22 24 23 22 21 20 19 18 18 18 18 17 16 16 16 16 15 14 13 13 13 13 13 13 12 11 11 12
21 21 19 19 20 22 22 22 20 20 20 21 22 23 21 22 22 24 24 23 22 22 21 20 19 19 19 18 18 18 18 17 16 15 14 13 13 14 14 13 13 12 12 12
22 20 21 22 22 23 23 24 21 20 22 24 24 25 24 24 23 25 26 24 23 23 22 21 21 21 19 19 19 19 19 18 17 17 16 15 16 16 15 15 14 13 13 13
22 21 23 25 25 24 24 23 22 22 23 24 22 24 24 26 26 27 26 25 24 24 23 22 22 22 22 20 19 19 20 19 19 19 18 17 17 16 16 16 16 15 14 14
22 22 23 24 24 25 25 22 23 24 25 25 24 25 24 26 29 30 27 25 25 26 25 24 22 23 22 22 21 20 20 21 20 20 20 19 18 18 18 18 17 17 16 15
22 22 22 24 25 24 25 24 23 23 24 28 25 26 27 28 29 30 28 25 26 26 27 25 23 23 24 23 22 22 22 22 22 21 20 20 19 20 20 19 18 17 17 16
23 23 23 24 24 23 23 22 22 23 24 26 24 26 29 28 29 29 28 26 27 27 28 27 25 24 25 24 24 23 22 22 22 22 21 21 20 21 21 20 19 18 18 17
22 23 22 23 24 25 23 23 23 23 23 23 23 26 26 27 28 29 29 28 28 27 27 28 27 26 26 25 25 24 24 23 23 22 21 20 20 21 21 20 20 20 19 19
21 21 21 23 25 25 24 24 24 24 24 24 25 26 28 29 29 30 30 30 30 28 28 27 27 27 27 25 25 25 24 24 23 23 22 22 21 21 21 21 21 21 21 20
22 22 20 21 25 24 25 24 24 26 27 27 26 27 30 31 32 32 32 32 30 29 28 28 28 27 28 27 26 26 25 24 24 24 24 23 22 22 22 22 22 21 21 21
24 24 21 21 22 23 24 25 26 27 27 27 26 27 29 30 31 31 31 30 31 30 29 29 29 28 29 30 28 28 27 26 25 25 25 24 23 23 23 23 23 22 22 22
23 24 23 22 21 22 23 24 26 28 29 28 28 30 30 31 32 31 30 31 31 30 30 30 30 31 31 31 30 29 28 27 27 27 27 26 25 24 24 23 23 23 23 23
22 23 22 21 21 22 22 23 25 27 28 28 28 30 31 32 32 31 30 31 30 30 31 31 32 31 31 32 31 29 29 29 29 28 29 28 27 26 25 25 25 25 25 24
23 24 23 22 21 23 24 25 26 26 28 28 29 29 30 31 32 31 31 30 30 30 31 32 31 31 31 31 30 29 30 30 30 29 29 28 27 26 26 25 26 26 26 26
22 23 22 23 22 21 23 24 25 25 26 28 29 30 32 31 30 30 30 30 30 30 31 30 31 31 30 31 30 30 30 30 30 30 29 29 28 27 26 26 27 27 27 27
22 22 21 21 22 20 23 23 24 25 26 27 29 31 30 30 30 30 30 30 30 30 30 31 32 31 29 30 30 30 30 30 30 29 30 30 29 28 27 27 28 28 28 27
22 21 21 21 21 22 24 23 23 25 26 26 28 29 30 30 31 32 31 30 29 31 31 30 31 31 30 30 28 28 29 29 30 30 30 30 30 29 29 29 28 28 28 27
21 21 21 20 20 23 23 22 24 26 28 29 30 30 31 32 32 32 32 30 29 29 29 30 30 30 30 30 30 30 29 29 29 29 30 29 28 28 28 28 28 28 28 28
19 20 20 21 21 22 23 24 25 27 29 29 30 30 31 32 31 31 31 30 29 29 29 29 29 29 29 30 29 29 29 29 29 29 29 28 27 27 27 27 27 28 28 28
20 18 20 21 21 22 23 22 23 25 27 28 29 30 30 31 31 31 31 30 30 29 30 30 30 30 30 30 29 28 28 28 28 27 27 27 27 27 27 27 27 27 27 28
19 19 19 19 20 21 22 22 21 22 25 26 27 28 29 29 30 31 31 30 30 29 30 29 29 29 29 29 28 28 28 28 27 25 25 25 26 26 26 26 27 27 27 27
19 20 20 19 20 21 22 22 22 23 24 25 25 25 26 28 28 29 30 29 28 28 29 28 28 27 28 28 28 27 27 27 26 26 25 24 25 25 26 26 27 27 27 26
18 19 19 19 20 21 21 22 23 24 24 24 25 25 26 27 27 27 28 27 28 28 27 26 26 26 26 27 27 27 26 25 25 25 26 25 26 26 26 26 26 27 27 26
19 19 20 21 21 21 20 22 22 23 24 25 25 25 25 25 23 23 24 25 25 25 25 25 25 26 26 26 26 26 26 25 25 26 26 26 26 26 26 25 25 26 27 26
19 19 20 20 20 21 21 22 22 22 23 23 23 23 22 22 21 21 20 20 22 24 25 25 25 25 25 25 25 26 27 27 27 27 27 27 27 27 26 25 25 26 27 27
18 19 19 20 21 20 20 20 20 21 21 21 21 21 21 22 21 21 21 20 21 21 23 24 24 24 25 26 26 27 28 28 28 28 28 28 28 27 26 26 26 27 27 27
Wind_Direction
246 246 246 248 249 248 244 250 255 259 254 253 255 258 257 260 262 261 261 265 266 267 270 272 274 275 276 277 276 278 279 283 283 285 290 291 294 297 301 304 304 301 301 299
246 247 248 247 248 250 247 247 245 249 252 250 254 256 258 259 260 265 265 263 262 265 268 269 271 271 272 273 273 275 276 278 278 278 282 288 291 293 297 301 302 300 301 301
248 246 244 244 243 245 248 250 248 250 254 255 256 258 258 260 262 264 266 266 262 263 264 267 268 271 270 269 270 271 275 276 274 275 278 285 289 291 294 297 297 299 300 297
250 246 245 246 244 242 247 249 250 249 251 257 255 258 259 258 266 266 264 263 263 264 264 265 266 267 269 270 268 267 271 272 271 273 275 280 286 288 290 292 293 294 296 296
249 248 247 247 246 245 246 247 251 250 250 252 254 258 260 259 264 263 262 262 263 264 267 266 263 265 266 267 269 268 270 269 269 272 274 276 280 285 287 289 291 292 293 295
250 247 247 249 250 249 249 245 248 251 253 255 253 255 258 257 259 263 261 260 259 262 265 266 264 266 266 266 267 268 269 269 268 270 273 273 277 281 283 285 287 288 290 293
250 247 246 248 250 251 251 249 252 253 254 258 259 259 260 257 256 258 261 260 259 261 263 265 263 264 265 265 266 265 267 268 269 269 271 271 274 279 280 281 283 284 286 289
251 251 249 249 247 248 248 246 247 251 255 259 259 260 261 263 262 261 260 260 260 260 263 264 263 262 262 263 263 265 264 265 267 269 270 270 274 277 278 279 280 280 282 284
247 249 250 251 251 250 249 246 246 249 252 257 256 254 253 254 257 260 262 263 263 260 263 263 261 261 261 260 262 264 263 262 264 266 270 272 272 276 278 280 278 279 279 281
244 245 241 246 251 252 251 253 250 246 251 257 259 259 258 256 258 259 261 264 264 265 264 261 259 259 260 259 259 260 261 260 261 265 269 272 272 275 276 279 279 278 279 280
245 246 241 242 249 252 253 249 248 249 250 254 259 259 256 255 258 259 260 262 264 263 262 261 259 257 259 258 257 258 259 258 260 262 265 269 271 273 274 275 276 276 277 279
245 248 244 242 247 252 253 251 249 250 251 250 254 260 258 258 257 257 258 261 262 261 261 260 259 258 258 256 255 257 258 258 260 262 263 265 268 270 272 273 274 274 275 278
248 249 250 245 247 249 248 247 248 251 253 253 254 259 260 262 260 257 254 256 260 260 258 258 258 258 257 256 256 257 257 259 261 264 266 265 265 268 269 270 272 273 275 278
250 253 250 245 246 250 250 250 249 249 251 253 255 257 258 261 261 256 254 257 260 259 258 258 257 257 256 256 256 257 257 258 260 263 266 265 265 267 269 269 270 272 274 277
253 252 251 248 249 256 255 255 252 253 252 253 255 256 257 261 262 260 258 258 260 258 257 256 254 254 254 255 255 257 257 258 260 262 264 265 266 268 269 269 269 272 274 276
255 255 255 251 249 254 258 259 256 253 255 256 256 257 257 258 259 261 260 259 259 258 255 254 253 251 254 256 255 256 257 258 260 262 264 265 266 268 268 269 269 271 274 275
258 256 257 257 253 252 255 259 262 260 259 260 258 258 258 259 260 260 259 259 260 256 257 255 253 254 255 255 255 256 258 258 259 261 265 267 266 267 267 267 269 272 273 274
260 260 260 261 256 255 257 256 258 259 258 257 257 258 259 261 261 261 259 258 256 255 255 255 254 252 254 256 257 259 259 260 260 262 264 264 264 266 267 267 268 270 272 273
264 261 258 257 257 260 262 259 257 258 260 261 260 259 261 263 261 260 258 256 255 253 255 255 254 254 255 256 257 259 259 260 260 261 261 262 263 264 266 267 269 270 271 272
270 266 259 257 258 261 264 266 264 263 262 262 263 264 262 262 260 261 258 256 256 254 254 255 255 255 256 257 256 256 258 259 260 261 261 262 263 263 265 267 269 269 270 273
272 269 266 262 261 262 266 267 266 264 266 266 265 266 264 261 260 260 259 259 256 255 255 256 255 254 254 255 256 257 259 260 260 261 262 263 263 263 264 267 269 270 272 274
270 267 268 267 261 263 266 268 268 269 267 265 266 266 264 261 260 258 258 257 255 256 255 256 253 251 252 254 255 256 256 258 259 260 261 262 264 264 265 267 268 270 272 273
273 272 269 267 266 265 267 269 268 267 266 266 267 266 264 263 263 262 260 258 257 256 255 254 253 253 253 254 255 255 255 257 259 261 262 262 263 264 266 267 267 269 271 273
274 275 273 269 270 270 269 270 270 268 267 268 268 267 265 264 263 262 260 257 255 253 252 250 252 253 253 253 253 254 256 258 260 262 264 263 263 265 266 267 268 270 272 272
275 275 273 270 270 272 273 272 270 268 268 267 267 267 265 263 263 264 262 258 252 249 248 250 252 252 253 254 255 257 258 259 261 262 263 262 262 265 265 266 268 270 273 274
276 277 275 273 274 275 274 273 272 271 271 270 269 266 264 263 265 263 262 261 256 252 251 252 252 253 256 257 258 260 260 260 261 262 263 264 261 263 264 265 268 271 273 274
Height
5849 5851 5853 5856 5858 5860 5863 5865 5866 5867 5868 5868 5868 5869 5868 5869 5870 5869 5869 5870 5871 5871 5872 5872 5872 5871 5871 5872 5872 5872 5872 5872 5872 5871 5871 5871 5870 5870 5869 5868 5867 5866 5865 5864
5845 5847 5850 5852 5853 5855 5857 5858 5861 5863 5864 5864 5864 5864 5863 5864 5865 5865 5865 5866 5867 5867 5867 5867 5868 5867 5867 5868 5869 5869 5869 5869 5869 5869 5869 5868 5868 5867 5867 5866 5865 5864 5863 5862
5839 5843 5845 5846 5848 5850 5852 5854 5856 5858 5859 5859 5860 5859 5859 5859 5860 5860 5860 5861 5862 5862 5863 5863 5863 5863 5862 5864 5864 5865 5865 5865 5866 5866 5866 5866 5865 5865 5864 5864 5863 5862 5861 5860
5834 5837 5839 5840 5842 5844 5846 5848 5850 5852 5853 5853 5854 5854 5855 5854 5855 5855 5855 5856 5857 5857 5858 5859 5859 5859 5859 5860 5860 5860 5861 5861 5862 5863 5863 5863 5863 5862 5862 5861 5860 5860 5859 5858
5828 5831 5833 5834 5837 5838 5840 5843 5844 5845 5846 5846 5848 5849 5850 5850 5849 5848 5849 5851 5852 5852 5852 5853 5854 5854 5855 5856 5857 5857 5857 5857 5858 5859 5859 5859 5859 5859 5858 5858 5857 5857 5856 5855
5823 5825 5827 5828 5830 5832 5834 5835 5836 5837 5839 5839 5841 5843 5844 5843 5843 5843 5843 5845 5846 5846 5847 5848 5849 5849 5850 5851 5852 5853 5853 5853 5853 5854 5854 5855 5855 5855 5855 5854 5854 5853 5852 5852
5817 5819 5821 5822 5824 5826 5828 5829 5831 5832 5832 5833 5836 5836 5836 5836 5837 5837 5838 5839 5839 5840 5840 5842 5844 5844 5844 5845 5846 5847 5848 5848 5849 5849 5850 5850 5850 5850 5850 5850 5850 5849 5849 5849
5811 5813 5815 5816 5817 5819 5821 5823 5826 5827 5828 5830 5832 5830 5831 5831 5830 5831 5830 5831 5832 5833 5834 5836 5837 5838 5839 5840 5841 5842 5843 5843 5844 5845 5845 5845 5846 5845 5846 5845 5845 5845 5845 5844
5804 5807 5809 5810 5811 5813 5814 5816 5819 5821 5821 5823 5823 5823 5823 5822 5823 5824 5824 5825 5825 5826 5827 5829 5831 5831 5832 5834 5835 5836 5837 5838 5839 5840 5841 5841 5841 5841 5841 5841 5841 5840 5840 5840
5798 5799 5802 5804 5805 5806 5808 5810 5812 5813 5814 5815 5817 5816 5816 5816 5817 5817 5817 5817 5819 5820 5821 5822 5824 5825 5825 5827 5828 5830 5831 5832 5833 5834 5835 5835 5836 5836 5836 5836 5836 5835 5835 5835
5791 5793 5796 5797 5798 5800 5802 5804 5804 5806 5807 5809 5809 5811 5808 5808 5808 5809 5810 5810 5811 5812 5813 5815 5816 5818 5818 5819 5821 5823 5825 5826 5827 5828 5829 5830 5830 5830 5830 5830 5830 5830 5830 5830
5784 5786 5788 5790 5792 5793 5794 5796 5797 5798 5799 5800 5801 5803 5799 5799 5800 5800 5801 5803 5803 5804 5805 5807 5808 5809 5811 5812 5813 5816 5818 5819 5821 5823 5823 5824 5824 5825 5825 5825 5825 5825 5825 5824
5778 5779 5781 5784 5787 5787 5787 5788 5789 5790 5791 5791 5793 5795 5792 5791 5792 5793 5793 5794 5795 5795 5796 5797 5799 5800 5803 5804 5806 5809 5811 5812 5814 5815 5816 5817 5818 5819 5819 5819 5819 5819 5819 5818
5772 5773 5775 5778 5779 5779 5780 5780 5781 5783 5783 5783 5785 5784 5784 5783 5783 5784 5784 5785 5787 5787 5787 5789 5789 5791 5794 5797 5799 5801 5803 5805 5807 5808 5809 5810 5811 5812 5812 5813 5813 5813 5812 5812
5765 5767 5769 5770 5771 5771 5772 5773 5774 5775 5775 5776 5776 5776 5775 5776 5775 5775 5776 5778 5778 5779 5780 5781 5781 5783 5787 5790 5792 5793 5796 5797 5799 5801 5802 5803 5804 5804 5805 5805 5806 5806 5806 5805
5759 5761 5762 5763 5765 5765 5765 5766 5767 5768 5768 5768 5768 5767 5767 5767 5767 5767 5768 5769 5770 5770 5771 5773 5774 5776 5779 5782 5784 5785 5787 5789 5791 5793 5794 5795 5796 5797 5797 5798 5798 5799 5798 5798
5753 5755 5756 5757 5758 5758 5759 5760 5761 5761 5761 5761 5760 5760 5759 5759 5759 5759 5760 5762 5762 5763 5764 5766 5767 5769 5773 5775 5776 5777 5779 5781 5783 5785 5786 5787 5788 5789 5790 5790 5791 5791 5791 5791
5747 5748 5749 5751 5752 5752 5754 5752 5752 5752 5751 5751 5752 5751 5752 5752 5752 5752 5753 5754 5755 5756 5757 5759 5761 5763 5766 5768 5769 5769 5771 5773 5775 5776 5778 5779 5780 5781 5782 5782 5783 5783 5783 5783
5741 5742 5743 5744 5744 5745 5745 5745 5745 5744 5744 5744 5744 5744 5743 5744 5745 5745 5746 5747 5748 5749 5751 5752 5754 5757 5758 5760 5762 5762 5764 5766 5767 5768 5769 5771 5772 5773 5774 5775 5775 5775 5776 5776
5737 5737 5738 5738 5739 5738 5738 5738 5738 5738 5736 5735 5736 5736 5736 5736 5737 5738 5738 5739 5741 5743 5745 5746 5748 5749 5751 5752 5754 5756 5757 5758 5759 5761 5762 5763 5764 5765 5766 5767 5767 5768 5768 5768
5731 5732 5732 5732 5731 5731 5731 5731 5731 5732 5730 5728 5727 5728 5729 5729 5730 5731 5732 5732 5734 5735 5737 5739 5741 5742 5744 5745 5747 5749 5749 5751 5752 5753 5755 5756 5757 5757 5758 5759 5760 5760 5760 5760
5726 5727 5726 5726 5725 5727 5725 5725 5725 5724 5723 5722 5721 5722 5722 5722 5722 5723 5724 5725 5727 5728 5730 5732 5733 5735 5737 5738 5740 5741 5743 5744 5745 5746 5748 5748 5749 5750 5751 5751 5752 5752 5752 5753
5722 5722 5721 5721 5722 5720 5718 5718 5718 5717 5716 5715 5715 5715 5715 5715 5715 5716 5717 5718 5719 5721 5723 5724 5726 5728 5730 5731 5733 5734 5735 5736 5737 5739 5740 5741 5742 5742 5743 5744 5744 5745 5745 5745
5717 5717 5716 5716 5715 5714 5714 5713 5712 5711 5710 5710 5709 5709 5708 5708 5709 5709 5709 5710 5712 5714 5716 5717 5719 5721 5723 5724 5726 5727 5728 5729 5730 5732 5733 5734 5734 5735 5735 5736 5737 5737 5738 5738
5712 5711 5711 5711 5710 5709 5708 5707 5706 5705 5704 5703 5703 5702 5702 5702 5702 5703 5703 5704 5706 5707 5709 5711 5713 5714 5716 5717 5718 5719 5721 5722 5723 5724 5725 5726 5727 5728 5728 5729 5729 5730 5731 5730
5708 5707 5706 5706 5705 5704 5703 5701 5700 5699 5698 5697 5697 5697 5696 5695 5696 5697 5698 5699 5699 5701 5702 5704 5705 5707 5709 5710 5711 5712 5713 5714 5715 5716 5717 5718 5719 5720 5720 5721 5722 5722 5723 5723